Showing default

UHETSAT, 58466

Orbit data source: Space-Track

UHETSAT, 58466 is a payload satellite owned by SITAEL SpA (IT) in SSO that was launched on Fri, 01 Dec 2023 UTC via an FALCON 9 launch vehicle from the Air Force Western Test Range (AFWTR). Payload-class satellites include a variety of spacecraft equipped with specific instruments for various scientific and technological missions. These include communications satellites like Starlink; space stations such as the ISS; scientific satellites like the Hubble; Earth observation satellites from companies like Planet Labs, Umbra, and HawkEye 360; GPS; miniature CubeSats for education and research; and military/defense satellites.

Loading next visibility...
Identifier
58466, 2023-185E
Orbit
SSO
Country
Flag of ITIT
Related business
Manufacturer
SITAEL SpA
Mission
Operational Commercial Technology
Bus & Motor
S-50, Unknown motor
Mass
70 kg wet, 70 kg dry
Launch date (UTC)
2023-12-01 (3 years ago)
Launch vehicle
FALCON 9
Launch site
Air Force Western Test Range (AFWTR)
Object type
Payload
Rocket body
Debris
Shape & HBR
Box, 0.4 m
Radar Cross Section
0.360 m², Medium (>0.1 m² and < 1m²)

Expand to show TLE details & history
Last TLE update: 10 hours ago

TLE from 10 hours ago
0 UHETSAT
1 58466U 23185E   26263.63175674  .00004168  00000-0  13601-3 0  9999
2 58466  97.3384 330.2573 0011694 337.8850  22.1886 15.32275251155903
Epoch: 2026-09-20T15:09Z
TLE epoch observation values (Epoch: 2026-09-20T15:09:43.782Z)
Latitude
-0.00001°
Longitude
103.30172°
Altitude
464.72 km
Speed
7.638 km/s
True Right ascension
22h 01m 01s
True Declination
0° 00' 00"
Sunlit
Object was in full shadow at epoch
Visualization orbit readout
Latitude
Unknown
Longitude
Unknown
Altitude
Unknown
Speed
Unknown
Apparent Right ascension
Unknown
Apparent Declination
Unknown
Sunlit
N/A
Visualization observer readout
Local Sidereal Time
18:03:24
Azimuth
Unknown
Elevation
Unknown
Doppler factor
Unknown
Orbital elements
Apogee altitude
473.976 km
Perigee altitude
457.969 km
Semi-major axis
6,844.109 km
Eccentricity
0.00117
Inclination
97.3384°
RAAN
330.2573°
Arg. of periapsis
337.885°
True anomaly
22.23928°
Mean anomaly
22.1886°
Eccentric anomaly
22.21393°
Mean motion
3.83326 °/min
Orbital period
93.91 mins
BSTAR
0.00013601
Loading maneuver chart data...
Computing Atmospheric mass density...
Loading historical data...
Loading historical data...
Loading historical data...
Loading historical data...
Loading historical data...
Loading historical data...
Loading historical data...

Documentation

Showing up to 5 results
|